THOR ABLESTAR DEB, 1511

Orbit data source: Space-Track

THOR ABLESTAR DEB, 1511 is space debris in LEO originally from a launch on Fri, 13 Aug 1965 UTC launched from the Air Force Western Test Range (AFWTR). Debris objects in space refer to the collection of defunct objects orbiting the Earth. Examples of debris include non-operational satellites, rocket bodies, and fragments generated from explosions, collisions, or faulty payload assembly.

Loading next visibility...
THOR ABLESTAR DEB details
Identifier
1511, 1965-065D
Orbit
LEO
Last TLE update13 hours ago
Origin
Flag of USNRL (US)
ManufacturerNRL
MissionSpacecraft
Bus & MotorUnknown
MassUnknown
Launch date (UTC)
1965-08-13 (59 years ago)
Launch vehicleUnknown
Launch site
Air Force Western Test Range (AFWTR)
Object type
Payload
Rocket body
Debris
Shape & HBRUnknown
Radar Cross Section0.550 m², Medium (>0.1 m² and < 1m²)

Expand to show TLE details & history

TLE from 13 hours ago
0 THOR ABLESTAR DEB
1  1511U 65065D   24356.08889437  .00000068  00000-0  11907-3 0  9992
2  1511  89.9654 212.2803 0067242 294.4602 220.5403 13.34138759888652
Epoch: 2024-12-21T02:08Z
Definitive object data (Epoch: 2024-12-21T02:08:00.473Z)
Latitude25.52479°
Longitude-89.88317°
Altitude1,172.846 km
Speed7.25 km/s
True Right ascension02h 09m 03s
True Declination25° 23' 55"
Sunlit
Object was in full shadow at TLE epoch
Visualization TLE readout
Latitude-32.44216°
Longitude-89.84668°
Altitude1,134.965 km
Speed7.288 km/s
Apparent Right ascension02h 06m 45s
Apparent Declination-35° 42' 27"
Sunlit
Object is in daylight
Visualization observer readout
Local Sidereal Time14:03:36
Azimuth351.324° N
Elevation-85.746°
Doppler factor1
Orbital elements
Apogee altitude1,178.74 km
Perigee altitude1,077.791 km
Semi-major axis7,506.403 km
Eccentricity0.0067242
Inclination89.9654°
RAAN212.2803°
Arg. of periapsis294.4602°
True anomaly220.04265°
Mean anomaly220.5403°
Eccentric anomaly220.29116°
Mean motion3.3373 °/min
BSTAR0.00011907
Orbital period107.87 mins
Loading maneuver chart data...
Loading historical data...
Loading historical data...
Loading historical data...
Loading historical data...
Loading historical data...
Loading historical data...
Loading historical data...

THOR ABLESTAR DEB Visibility forecast

Observer location: undefined°, undefined

Span
Click to sort rows by Start time (UTC) header in descending order
Start Az.
Max El. time (UTC)
Max El. Az.
Max El.
End time (UTC)
End Az.
12 mins2024-12-21 15:51:22.768Z209.292° SW2024-12-21 15:57:22.768Z276.684° WNW32.448°2024-12-21 16:03:22.768Z341.275° N
7 mins2024-12-22 01:24:22.768Z50.359° ENE2024-12-22 01:27:22.768Z79.661° E17.187°2024-12-22 01:31:22.768Z115.465° SE
12 mins2024-12-22 03:10:22.768Z357.392° N2024-12-22 03:15:22.768Z291.882° WNW44.17°2024-12-22 03:22:22.768Z190.932° SSW
7 mins2024-12-22 13:31:22.768Z101.253° ESE2024-12-22 13:34:22.768Z69.685° E19.38°2024-12-22 13:38:22.768Z31.889° NE
|